Zurück zum Katalog

FENGYUN 1C DEB

AktivPO
NORAD 31511·DEBRIS·🇨🇳 China

Gestartet May 10, 1999 von Taiyuan Satellite Launch Center

Loading…

Nächste Überflüge (nächste 24 Stunden)

TLE

AktuellSource: Space-Track

Epoche: Sep 13, 2026, 07:20 UTC

1 31511U 99025BXA 26256.30588332  .00000977  00000-0  38009-3 0  9995
2 31511  99.0809  81.0011 0106968 151.8525 208.8495 14.29092003997210

Verfolge FENGYUN 1C DEB in Echtzeit mit AllMySat

Download on the App Store